Location: Caserta
(41.0670°N, 14.3330°E)
Time: 04:38:09
(UTC+02:00)

STARLINK-1341 - Pass Details

Date: 02 October 2020
Orbit: 549 x 550 km, 53.0° (Epoch: 20 October)

Event Time Altitude Azimuth Distance (km) Brightness Sun altitude
Exits shadow 05:58:35 13° 302° (WNW) 1,630 5.6 -12.5°
Maximum altitude 06:01:01 20° 343° (NNW) 1,289 5.4 -12.0°
Drops below altitude 10° 06:04:09 10° 33° (NNE) 1,826 6.8 -11.5°
Sets 06:06:52 0° 50° (NE) 2,722 8.1 -11.0°
